Location: Doschendorf
(50.0069°N, 11.0602°E)
Time: 13:55:45
(UTC+00:00)

USA 238 DEB - Pass Details

Date: 17 November 2019
Orbit: 1024 x 1188 km, 63.4° (Epoch: 29 November)

Event Time Altitude Azimuth Distance (km) Brightness Sun altitude
Rises 17:23:46 0° 310° (NW) 3,894 7.3 -18.1°
Reaches altitude 10° 17:26:37 10° 319° (NW) 2,960 6.5 -18.6°
Maximum altitude 17:33:11 40° 27° (NNE) 1,621 4.4 -19.6°
Enters shadow 17:35:41 31° 67° (ENE) 1,889 4.4 -20.0°
